FDX14 EDDK-LOWW

Flight info

Callsign FDX14
Flight time N/A
Altitude 41000
Route KUMIK1B/31R KUMIK L603 TESGA DCT ESATI DCT BARSU DCT EKSOS DCT LULAR DCT RUDAP DCT BUDEX BUDEX2W
Aircraft B77L/H-SDE1E2E3FGHIJ2J3J4J5M1RWXY/LB1D1

Departure

Time 2026-05-06 19:11
Airport Cologne Bonn Airport (EDDK)

Arrival

Time N/A
Airport Vienna International Airport (LOWW)
Time Latitude Longitude Altitude Speed Heading
2026-05-06 18:24 50.87175 7.13361 250 ft 0 kts 228°
2026-05-06 18:51 50.87181 7.13371 250 ft 2 kts 228°
2026-05-06 18:51 50.87191 7.13389 250 ft 2 kts 227°
2026-05-06 18:51 50.87201 7.13407 250 ft 2 kts 228°
2026-05-06 18:52 50.87211 7.13424 250 ft 2 kts 227°
2026-05-06 18:52 50.87217 7.13436 250 ft 2 kts 226°
2026-05-06 18:52 50.87229 7.13449 250 ft 2 kts 194°
2026-05-06 18:52 50.87244 7.13450 250 ft 2 kts 167°
2026-05-06 18:53 50.87257 7.13442 250 ft 1 kts 140°
2026-05-06 18:53 50.87255 7.13444 250 ft 2 kts 140°
2026-05-06 18:53 50.87226 7.13485 250 ft 5 kts 137°
2026-05-06 18:53 50.87210 7.13507 250 ft 0 kts 137°
2026-05-06 18:56 50.87209 7.13508 250 ft 0 kts 137°
2026-05-06 18:56 50.87201 7.13520 250 ft 2 kts 137°
2026-05-06 18:56 50.87185 7.13544 251 ft 4 kts 137°
2026-05-06 18:56 50.87159 7.13581 251 ft 5 kts 137°
2026-05-06 18:57 50.87127 7.13629 252 ft 7 kts 137°
2026-05-06 18:57 50.87086 7.13689 254 ft 8 kts 137°
2026-05-06 18:57 50.87039 7.13757 255 ft 9 kts 137°
2026-05-06 18:57 50.86987 7.13833 257 ft 10 kts 138°
2026-05-06 18:58 50.86929 7.13915 258 ft 11 kts 138°
2026-05-06 18:58 50.86870 7.14000 259 ft 6 kts 138°
2026-05-06 18:58 50.86836 7.14048 261 ft 6 kts 138°
2026-05-06 18:58 50.86800 7.14100 262 ft 0 kts 138°
2026-05-06 18:59 50.86797 7.14104 262 ft 1 kts 138°
2026-05-06 18:59 50.86785 7.14118 262 ft 3 kts 149°
2026-05-06 19:00 50.86756 7.14133 262 ft 6 kts 163°
2026-05-06 19:00 50.86697 7.14192 263 ft 13 kts 137°
2026-05-06 19:00 50.86617 7.14306 267 ft 17 kts 138°
2026-05-06 19:00 50.86516 7.14452 272 ft 21 kts 137°
2026-05-06 19:01 50.86398 7.14625 278 ft 24 kts 137°
2026-05-06 19:01 50.86265 7.14817 284 ft 27 kts 137°
2026-05-06 19:01 50.86114 7.15036 286 ft 29 kts 138°
2026-05-06 19:01 50.85961 7.15259 287 ft 30 kts 137°
2026-05-06 19:02 50.85812 7.15473 289 ft 24 kts 137°
2026-05-06 19:02 50.85685 7.15658 292 ft 24 kts 137°
2026-05-06 19:02 50.85562 7.15834 296 ft 23 kts 137°
2026-05-06 19:02 50.85443 7.16007 300 ft 22 kts 137°
2026-05-06 19:03 50.85356 7.16156 305 ft 16 kts 118°
2026-05-06 19:03 50.85338 7.16317 309 ft 12 kts 82°
2026-05-06 19:03 50.85366 7.16418 310 ft 0 kts 51°
2026-05-06 19:05 50.85367 7.16419 310 ft 0 kts 51°
2026-05-06 19:06 50.85375 7.16434 311 ft 2 kts 48°
2026-05-06 19:06 50.85392 7.16460 311 ft 3 kts 39°
2026-05-06 19:06 50.85408 7.16478 312 ft 0 kts 31°
2026-05-06 19:09 50.85410 7.16479 312 ft 2 kts 31°
2026-05-06 19:09 50.85447 7.16506 313 ft 9 kts 15°
2026-05-06 19:09 50.85539 7.16515 313 ft 16 kts 350°
2026-05-06 19:09 50.85605 7.16446 312 ft 0 kts 317°
2026-05-06 19:10 50.85606 7.16445 312 ft 1 kts 317°
2026-05-06 19:10 50.85804 7.16158 305 ft 95 kts 317°
2026-05-06 19:10 50.86536 7.15102 637 ft 173 kts 318°
2026-05-06 19:11 50.87377 7.13810 2092 ft 176 kts 317°
2026-05-06 19:11 50.88211 7.12423 3070 ft 197 kts 315°
2026-05-06 19:11 50.89227 7.10971 4350 ft 204 kts 335°
2026-05-06 19:11 50.90634 7.10576 5371 ft 225 kts 12°
2026-05-06 19:12 50.91841 7.11706 7217 ft 208 kts 35°
2026-05-06 19:12 50.92941 7.13125 8263 ft 225 kts 42°
2026-05-06 19:12 50.93916 7.15277 9089 ft 254 kts 57°
2026-05-06 19:12 50.94756 7.17837 10072 ft 274 kts 60°
2026-05-06 19:13 50.95618 7.20592 11063 ft 294 kts 61°
2026-05-06 19:13 50.96550 7.23554 12088 ft 314 kts 61°
2026-05-06 19:13 50.97543 7.26696 13177 ft 332 kts 61°
2026-05-06 19:13 50.98618 7.30096 13841 ft 365 kts 62°
2026-05-06 19:14 50.99780 7.33833 13756 ft 386 kts 65°
2026-05-06 19:14 51.00651 7.38007 13899 ft 405 kts 75°
2026-05-06 19:14 51.01061 7.42356 13791 ft 392 kts 86°
2026-05-06 19:14 51.00961 7.46686 13851 ft 394 kts 96°
2026-05-06 19:15 51.00393 7.50904 13858 ft 393 kts 105°
2026-05-06 19:15 50.99595 7.55047 13854 ft 393 kts 107°
2026-05-06 19:15 50.98781 7.59178 13859 ft 394 kts 107°
2026-05-06 19:15 50.97963 7.63322 13860 ft 395 kts 107°
2026-05-06 19:16 50.97109 7.67643 14551 ft 423 kts 108°
2026-05-06 19:16 50.96239 7.72045 16344 ft 421 kts 108°
2026-05-06 19:16 50.95373 7.76417 17752 ft 417 kts 108°
2026-05-06 19:16 50.94413 7.80734 18561 ft 420 kts 114°
2026-05-06 19:17 50.93091 7.84853 18834 ft 421 kts 122°
2026-05-06 19:17 50.91508 7.88725 18841 ft 419 kts 125°
2026-05-06 19:17 50.89880 7.92587 18900 ft 433 kts 125°
2026-05-06 19:17 50.88195 7.96585 20083 ft 446 kts 125°
2026-05-06 19:18 50.86497 8.00619 21792 ft 447 kts 125°
2026-05-06 19:18 50.84777 8.04704 23108 ft 455 kts 126°
2026-05-06 19:18 50.83009 8.08900 24210 ft 466 kts 126°
2026-05-06 19:18 50.81184 8.13227 24784 ft 474 kts 126°
2026-05-06 19:19 50.79390 8.17477 24843 ft 466 kts 126°
2026-05-06 19:19 50.77604 8.21711 24847 ft 454 kts 126°
2026-05-06 19:19 50.75860 8.25833 24845 ft 452 kts 126°
2026-05-06 19:19 50.74116 8.29947 24839 ft 451 kts 126°
2026-05-06 19:20 50.72378 8.34039 24841 ft 450 kts 126°
2026-05-06 19:20 50.70451 8.37882 24836 ft 447 kts 135°
2026-05-06 19:20 50.68189 8.41217 24837 ft 445 kts 143°
2026-05-06 19:20 50.65659 8.43964 24836 ft 441 kts 151°
2026-05-06 19:21 50.62978 8.46302 24838 ft 441 kts 153°
2026-05-06 19:21 50.60291 8.48581 24890 ft 453 kts 153°
2026-05-06 19:21 50.57459 8.50973 25860 ft 467 kts 153°
2026-05-06 19:21 50.54606 8.53380 27213 ft 471 kts 153°
2026-05-06 19:22 50.51728 8.55803 28536 ft 476 kts 153°
2026-05-06 19:22 50.48796 8.58268 29804 ft 481 kts 153°
2026-05-06 19:22 50.46503 8.60219 30533 ft 471 kts 152°